sat.trackr.live / text

‹ back to catalog

WILDFIRE 5

NORAD 57769 · 2023-133N

PAYLOAD ACTIVE UNKNOWN

§ Identity

Operator
Country
US
Launch date
2023-09-02
Launch site
AFWTR
Launch vehicle
Mass (kg)
RCS (m²)

External: N2YO · Heavens-Above · Gunter

§ Orbital elements

Epoch: 2026-09-21T09:38:51.029664Z

Period
103.91 min
Inclination
81.0001°
Eccentricity
0.0007262
Mean motion
13.85808842 rev/d
Perigee alt
938.0 km
Apogee alt
948.7 km
Semi-major
7,321.5 km
B*
-5.6972e-5
RAAN
275.4483°
Arg perigee
106.5582°
Mean anomaly
253.6373°
Rev number
15,435

§ Raw data

WILDFIRE 51 57769U 23133N   26264.40197951 -.00000054  00000+0 -56972-4 0  99952 57769  81.0001 275.4483 0007262 106.5582 253.6373 13.85808842154357

JSON: /api/v1/satellites/57769 · /tle

For live sub-satellite position, see the globe view (requires WebGL).

§ Visibility from observer

Set your observer location to see the next 7 days of passes ≥ 10°. The values pass through the URL so the page stays shareable.

No JS? Fill the form by hand. The geolocation button needs JavaScript.

§ Radio — SatNOGS DB

ModeDescriptionDownlinkUplink
BPSK S-band telemetry 2.278 GHz

1 transmitter · refreshed weekly from db.satnogs.org